This demonstration page uses our WeatherBlox Daily Observations layout. Learn more.

Left ArrowRight Arrow

39.92423, -83.80882

Hourly Observations for March 10, 2019

Temp ( °F °C ) Dew Point ( °F °C ) Humidity (%) Winds ( mph kmh ) Pressure ( in mb ) Visibility ( mi km ) Precip ( " mm )
12:10 am 00:10 Cloudy 55 13 54 12 94 94 S 17 28 29.56 1001 10 16.0934 0 0
12:56 am 00:56 Mostly Cloudy 55 12.8 53 11.7 93 93 SSW 15 24 29.58 1002 10 16.0934 0 0
1:56 am 01:56 Cloudy 56 13.3 52 11.1 87 87 SSW 15 24 29.6 1002 10 16.0934 0 0
3:56 am 03:56 Cloudy 55 12.8 47 8.3 74 74 WSW 31 50 29.64 1004 10 16.0934 0 0
4:46 am 04:46 Cloudy 52 11 46 8 82 82 WSW 20 31 29.68 1005 10 16.0934 0 0
4:56 am 04:56 Cloudy 52 11.1 46 7.8 80 80 WSW 16 26 29.69 1006 10 16.0934 0 0
5:56 am 05:56 Cloudy 50 10 44 6.7 80 80 WSW 25 41 29.74 1007 10 16.0934 0 0.0254
6:56 am 06:56 Cloudy 45 7.2 40 4.4 83 83 W 33 54 29.79 1009 10 16.0934 0 0
7:56 am 07:56 Cloudy 41 5 36 2.2 82 82 W 26 43 29.84 1011 10 16.0934 0 0
8:56 am 08:56 Cloudy 40 4.4 36 2.2 86 86 W 20 31 29.87 1011 10 16.0934 0 0
9:56 am 09:56 Cloudy 41 5 36 2.2 82 82 W 18 30 29.9 1013 10 16.0934 0 0
10:56 am 10:56 Cloudy 41 5 36 2.2 82 82 WSW 21 33 29.93 1014 10 16.0934 0 0
11:56 am 11:56 Cloudy 40 4.4 36 2.2 86 86 W 15 24 29.96 1014 10 16.0934 0 0
12:56 pm 12:56 Cloudy 41 5 36 2.2 82 82 WSW 20 31 29.97 1015 10 16.0934 0 0
1:56 pm 13:56 Cloudy 44 6.7 37 2.8 76 76 WSW 23 37 29.99 1016 10 16.0934 0 0
2:56 pm 14:56 Cloudy 44 6.7 37 2.8 76 76 W 25 41 30.01 1016 10 16.0934 0 0
3:38 pm 15:38 Partly Cloudy 45 7 36 2 71 71 W 23 37 30.02 1017 10 16.0934 0 0
3:48 pm 15:48 Mostly Cloudy 45 7 37 3 76 76 W 21 33 30.03 1017 10 16.0934 0 0
4:30 pm 16:30 Partly Cloudy 45 7 36 2 71 71 W 26 43 30.05 1018 10 16.0934 0 0
4:56 pm 16:56 Mostly Sunny 44 6.7 36 2.2 73 73 W 22 35 30.07 1018 10 16.0934 0 0
5:56 pm 17:56 Sunny 43 6.1 35 1.7 74 74 W 17 28 30.11 1020 10 16.0934 0 0
6:56 pm 18:56 Sunny 41 5 34 1.1 76 76 W 17 28 30.13 1020 10 16.0934 0 0
7:56 pm 19:56 Mostly Clear 40 4.4 34 1.1 79 79 W 16 26 30.17 1022 10 16.0934 0 0
8:56 pm 20:56 Clear 39 3.9 32 0 76 76 W 16 26 30.2 1023 10 16.0934 0 0
10:56 pm 22:56 Clear 38 3.3 33 0.6 83 83 W 15 24 30.24 1024 10 16.0934 0 0
11:56 pm 23:56 Mostly Clear 37 2.8 33 0.6 86 86 W 10 17 30.25 1025 10 16.0934 0 0

Powered by AerisWeather